Location: Richmond
(37.5540°N, 77.4610°W)
Time: 16:36:02
(UTC-04:00)

ISS - Visible Passes

Search period start: 27 July 2021 00:00
Search period end: 06 August 2021 00:00
Orbit: 419 x 421 km, 51.6° (Epoch: 27 July)

Date Brightness Start Highest point End Pass type
(mag) Time Alt. Az. Time Alt. Az. Time Alt. Az.
27 Jul -1.1 21:49:10 10° NNW 21:51:01 14° NNE 21:52:52 10° NE visible
27 Jul -1.1 23:24:58 10° NW 23:26:11 20° NW 23:26:11 20° NW visible
28 Jul -0.9 21:02:30 10° N 21:03:27 11° NNE 21:04:24 10° NNE visible
28 Jul -2.5 22:37:46 10° NW 22:40:29 38° N 22:40:29 38° N visible
29 Jul -2.1 21:50:41 10° NNW 21:53:37 27° NNE 21:54:51 21° ENE visible
29 Jul -0.7 23:27:23 10° WNW 23:27:49 13° WNW 23:27:49 13° WNW visible
30 Jul -1.6 21:03:41 10° NNW 21:06:10 19° NNE 21:08:39 10° ENE visible
30 Jul -2.5 22:39:54 10° WNW 22:42:14 39° WNW 22:42:14 39° WNW visible
31 Jul -3.8 21:52:36 10° NW 21:55:59 74° NE 21:56:43 50° ESE visible
01 Aug -3.0 21:05:26 10° NW 21:08:40 42° NE 21:11:15 14° ESE visible
01 Aug -1.2 22:42:54 10° W 22:44:14 16° WSW 22:44:14 16° WSW visible
02 Aug -2.5 21:55:05 10° WNW 21:58:07 31° SW 21:58:51 28° SSW visible
03 Aug -3.4 21:07:37 10° WNW 21:10:57 58° SW 21:13:33 15° SE visible
05 Aug -1.4 21:10:42 10° W 21:13:00 17° SW 21:15:18 10° S visible
